VK4CWL-13 Weather Reports


Display with metric or nautical units.
time (UTC)temp
F
wind
direction
speed
MPH
gust
MPH
rain 1hr
in
rain 24hr
in
rain mn
in
humidity
%
barometer
mb
20260903230859 76 270 5.0 5.0 0.00 0.00 0.00 41 1023.0
20260903225855 75 0 2.0 3.0 0.00 0.00 0.00 38 1022.9
20260903225353 74 135 1.0 2.0 0.00 0.00 0.00 42 1023.0
20260903224849 73 270 0.0 2.0 0.00 0.00 0.00 44 1023.0
20260903224347 72 180 2.0 3.0 0.00 0.00 0.00 45 1023.0
20260903223844 72 146 0.0 3.0 0.00 0.00 0.00 47 1023.2
20260903223341 71 0 0.0 2.0 0.00 0.00 0.00 47 1023.1
20260903222839 70 22 1.0 2.0 0.00 0.00 0.00 48 1023.0
20260903222339 69 45 1.0 3.0 0.00 0.00 0.00 49 1022.9
20260903221838 68 135 0.0 2.0 0.00 0.00 0.00 50 1022.9
20260903221333 67 0 1.0 2.0 0.00 0.00 0.00 51 1022.9
20260903220832 67 135 1.0 3.0 0.00 0.00 0.00 54 1023.0
20260903220328 65 135 1.0 3.0 0.00 0.00 0.00 55 1023.0
20260903215826 65 45 1.0 2.0 0.00 0.00 0.00 57 1023.0
20260903215324 63 45 1.0 1.0 0.00 0.00 0.00 57 1023.0
20260903214821 62 90 1.0 2.0 0.00 0.00 0.00 58 1022.9
20260903214319 62 135 1.0 3.0 0.00 0.00 0.00 59 1022.9
20260903213816 60 90 2.0 2.0 0.00 0.00 0.00 60 1022.7
20260903213314 60 135 2.0 2.0 0.00 0.00 0.00 62 1022.9
20260903212812 59 101 1.0 2.0 0.00 0.00 0.00 62 1022.8
20260903212310 58 45 1.0 1.0 0.00 0.00 0.00 63 1022.7
20260903211808 57 135 0.0 0.0 0.00 0.00 0.00 65 1022.7
20260903211305 56 135 0.0 1.0 0.00 0.00 0.00 66 1022.6
20260903210803 55 0 1.0 1.0 0.00 0.00 0.00 67 1022.6
20260903210301 54 315 1.0 1.0 0.00 0.00 0.00 68 1022.5
20260903205758 54 0 1.0 1.0 0.00 0.00 0.00 68 1022.6
20260903205256 53 315 0.0 0.0 0.00 0.00 0.00 66 1022.3
20260903204753 53 315 0.0 0.0 0.00 0.00 0.00 66 1022.2
20260903204251 52 270 0.0 0.0 0.00 0.00 0.00 65 1022.2
20260903203749 52 315 0.0 0.0 0.00 0.00 0.00 64 1022.1
20260903203247 52 0 0.0 1.0 0.00 0.00 0.00 64 1022.0
20260903202745 52 202 1.0 1.0 0.00 0.00 0.00 64 1022.0
20260903202242 52 225 0.0 2.0 0.00 0.00 0.00 64 1021.9
20260903201740 52 180 1.0 3.0 0.00 0.00 0.00 64 1021.8
20260903201238 52 135 1.0 1.0 0.00 0.00 0.00 63 1021.7
20260903200735 53 270 0.0 0.0 0.00 0.00 0.00 63 1021.6
20260903200233 53 270 0.0 1.0 0.00 0.00 0.00 64 1021.5
20260903195731 53 225 1.0 2.0 0.00 0.00 0.00 65 1021.6
20260903195228 53 180 1.0 1.0 0.00 0.00 0.00 64 1021.5
20260903194726 53 135 0.0 1.0 0.00 0.00 0.00 64 1021.5
20260903194226 53 180 1.0 2.0 0.00 0.00 0.00 65 1021.4
20260903193722 53 180 2.0 3.0 0.00 0.00 0.00 65 1021.4
20260903193220 53 180 2.0 2.0 0.00 0.00 0.00 65 1021.4
20260903192719 52 191 2.0 3.0 0.00 0.00 0.00 66 1021.3
20260903192218 52 180 2.0 3.0 0.00 0.00 0.00 65 1021.3
20260903191714 52 180 3.0 3.0 0.00 0.00 0.00 64 1021.2
20260903191210 52 180 1.0 1.0 0.00 0.00 0.00 63 1021.1
20260903190708 52 270 0.0 0.0 0.00 0.00 0.00 62 1020.8
20260903190205 52 135 0.0 1.0 0.00 0.00 0.00 62 1020.8
20260903185703 53 135 0.0 1.0 0.00 0.00 0.00 62 1020.8
20260903185201 53 90 0.0 0.0 0.00 0.00 0.00 62 1020.7
20260903184659 53 270 0.0 1.0 0.00 0.00 0.00 63 1020.7
20260903184157 53 135 1.0 1.0 0.00 0.00 0.00 62 1020.5
20260903183654 53 135 0.0 0.0 0.00 0.00 0.00 62 1020.6
20260903183152 53 270 0.0 1.0 0.00 0.00 0.00 61 1020.5
20260903182650 53 225 0.0 0.0 0.00 0.00 0.00 60 1020.5
20260903182147 53 270 0.0 0.0 0.00 0.00 0.00 61 1020.6
20260903181645 54 315 0.0 1.0 0.00 0.00 0.00 61 1020.6
20260903181143 54 315 1.0 2.0 0.00 0.00 0.00 61 1020.5
20260903180640 54 315 0.0 0.0 0.00 0.00 0.00 60 1020.3
20260903180138 54 315 0.0 0.0 0.00 0.00 0.00 59 1020.2
20260903175636 54 315 0.0 0.0 0.00 0.00 0.00 59 1020.2
20260903175136 55 315 0.0 0.0 0.00 0.00 0.00 59 1020.2
20260903174632 55 225 0.0 0.0 0.00 0.00 0.00 58 1020.2
20260903174129 55 45 0.0 0.0 0.00 0.00 0.00 58 1020.1
20260903173627 56 225 0.0 0.0 0.00 0.00 0.00 57 1020.1
20260903173124 56 0 0.0 0.0 0.00 0.00 0.00 57 1020.1
20260903172623 56 225 0.0 0.0 0.00 0.00 0.00 57 1020.2
20260903172120 56 225 0.0 0.0 0.00 0.00 0.00 56 1020.1
20260903171617 57 90 0.0 0.0 0.00 0.00 0.00 56 1020.2
20260903171115 57 225 0.0 1.0 0.00 0.00 0.00 56 1020.2
20260903170613 57 225 0.0 0.0 0.00 0.00 0.00 55 1020.1
20260903170111 58 225 0.0 1.0 0.00 0.00 0.00 56 1020.1
20260903165609 58 135 0.0 1.0 0.00 0.00 0.00 55 1020.2
20260903165106 58 90 0.0 1.0 0.00 0.00 0.00 55 1020.1
20260903164604 58 315 0.0 0.0 0.00 0.00 0.00 55 1020.2
20260903164101 58 270 1.0 3.0 0.00 0.00 0.00 56 1020.2
20260903163559 58 180 2.0 3.0 0.00 0.00 0.00 56 1020.2
20260903163057 58 180 2.0 2.0 0.00 0.00 0.00 56 1020.2
20260903162555 58 180 1.0 1.0 0.00 0.00 0.00 56 1020.1
20260903162052 58 180 1.0 1.0 0.00 0.00 0.00 55 1020.2
20260903161550 58 180 1.0 1.0 0.00 0.00 0.00 55 1020.3
20260903161048 58 180 1.0 1.0 0.00 0.00 0.00 55 1020.3
20260903160546 58 180 1.0 1.0 0.00 0.00 0.00 55 1020.3
20260903160044 58 180 1.0 1.0 0.00 0.00 0.00 54 1020.3
20260903155541 59 180 0.0 0.0 0.00 0.00 0.00 53 1020.3
20260903155038 59 180 0.0 0.0 0.00 0.00 0.00 52 1020.2
20260903154538 59 225 0.0 0.0 0.00 0.00 0.00 53 1020.3
20260903154034 60 225 0.0 0.0 0.00 0.00 0.00 53 1020.3
20260903153532 60 180 1.0 1.0 0.00 0.00 0.00 53 1020.4
20260903153029 60 225 0.0 1.0 0.00 0.00 0.00 53 1020.5
20260903152529 60 225 0.0 1.0 0.00 0.00 0.00 53 1020.5
20260903152025 60 225 0.0 1.0 0.00 0.00 0.00 53 1020.5
20260903151018 60 45 0.0 0.0 0.00 0.00 0.00 53 1020.6
20260903150515 60 45 0.0 0.0 0.00 0.00 0.00 52 1020.6
20260903150012 61 45 0.0 1.0 0.00 0.00 0.00 52 1020.5
20260903145510 61 45 0.0 0.0 0.00 0.00 0.00 52 1020.6
20260903145008 61 45 0.0 0.0 0.00 0.00 0.00 52 1020.6
20260903144506 61 45 0.0 0.0 0.00 0.00 0.00 51 1020.6
20260903144004 61 45 0.0 0.0 0.00 0.00 0.00 51 1020.6
20260903143501 61 45 1.0 1.0 0.00 0.00 0.00 51 1020.6
20260903142959 62 0 0.0 0.0 0.00 0.00 0.00 51 1020.7
20260903142457 62 0 0.0 0.0 0.00 0.00 0.00 51 1020.7
20260903141955 62 0 0.0 1.0 0.00 0.00 0.00 51 1020.7
20260903140949 62 0 0.0 1.0 0.00 0.00 0.00 50 1020.7
20260903140450 62 45 0.0 0.0 0.00 0.00 0.00 50 1020.7
20260903135945 62 315 0.0 0.0 0.00 0.00 0.00 50 1020.7
20260903135443 62 315 0.0 0.0 0.00 0.00 0.00 50 1020.9
20260903134941 62 90 0.0 0.0 0.00 0.00 0.00 50 1020.9
20260903134439 62 90 0.0 0.0 0.00 0.00 0.00 50 1020.8
20260903133936 62 45 0.0 0.0 0.00 0.00 0.00 49 1020.8
20260903133434 62 225 0.0 0.0 0.00 0.00 0.00 49 1020.8
20260903132932 63 45 0.0 1.0 0.00 0.00 0.00 49 1020.8
20260903132429 63 0 0.0 1.0 0.00 0.00 0.00 49 1020.8
20260903131424 63 90 0.0 1.0 0.00 0.00 0.00 49 1020.8
20260903130922 63 0 0.0 1.0 0.00 0.00 0.00 48 1020.8
20260903130420 63 0 0.0 1.0 0.00 0.00 0.00 48 1020.7
20260903125918 63 0 1.0 1.0 0.00 0.00 0.00 48 1020.8
20260903125416 63 90 0.0 1.0 0.00 0.00 0.00 48 1020.8
20260903124913 63 0 1.0 1.0 0.00 0.00 0.00 48 1020.8
20260903124411 63 0 2.0 3.0 0.00 0.00 0.00 50 1020.8
20260903123909 63 90 0.0 1.0 0.00 0.00 0.00 48 1020.8
20260903123406 63 0 1.0 1.0 0.00 0.00 0.00 47 1020.7
20260903122904 63 45 0.0 1.0 0.00 0.00 0.00 46 1020.7
20260903122401 64 315 0.0 0.0 0.00 0.00 0.00 47 1020.6
20260903121859 64 315 0.0 0.0 0.00 0.00 0.00 46 1020.6
20260903121357 64 315 0.0 0.0 0.00 0.00 0.00 46 1020.7
20260903120855 64 315 0.0 0.0 0.00 0.00 0.00 46 1020.6
20260903120353 64 315 0.0 0.0 0.00 0.00 0.00 46 1020.6
20260903115851 65 315 0.0 0.0 0.00 0.00 0.00 45 1020.6
20260903115348 65 315 0.0 0.0 0.00 0.00 0.00 45 1020.6
20260903114340 65 270 0.0 1.0 0.00 0.00 0.00 45 1020.6
20260903113838 65 315 0.0 0.0 0.00 0.00 0.00 45 1020.6
20260903113336 65 315 1.0 1.0 0.00 0.00 0.00 46 1020.6
20260903112833 65 348 1.0 2.0 0.00 0.00 0.00 45 1020.5
20260903112331 65 315 0.0 0.0 0.00 0.00 0.00 44 1020.5
20260903111831 65 135 0.0 0.0 0.00 0.00 0.00 45 1020.4
20260903111327 65 135 0.0 0.0 0.00 0.00 0.00 45 1020.4
20260903110825 65 45 0.0 0.0 0.00 0.00 0.00 44 1020.3
20260903110322 65 45 0.0 0.0 0.00 0.00 0.00 42 1020.3
20260903105317 67 315 0.0 0.0 0.00 0.00 0.00 43 1020.4
20260903104815 67 270 0.0 0.0 0.00 0.00 0.00 42 1020.2
20260903104313 67 270 0.0 0.0 0.00 0.00 0.00 41 1020.2
20260903103810 68 270 0.0 0.0 0.00 0.00 0.00 41 1020.1
20260903103308 68 270 0.0 0.0 0.00 0.00 0.00 41 1020.2
20260903102806 68 270 0.0 0.0 0.00 0.00 0.00 40 1020.0
20260903102306 69 270 0.0 0.0 0.00 0.00 0.00 40 1019.9
20260903101802 69 270 0.0 0.0 0.00 0.00 0.00 40 1019.9
20260903101302 69 270 0.0 0.0 0.00 0.00 0.00 40 1019.9
20260903100757 70 270 0.0 0.0 0.00 0.00 0.00 39 1019.9
20260903100255 70 270 1.0 1.0 0.00 0.00 0.00 39 1019.8
20260903095251 71 270 0.0 0.0 0.00 0.00 0.00 38 1019.6
20260903094748 71 270 0.0 0.0 0.00 0.00 0.00 38 1019.6
20260903094245 71 270 0.0 0.0 0.00 0.00 0.00 38 1019.6
20260903093745 71 315 0.0 0.0 0.00 0.00 0.00 37 1019.6
20260903093243 72 45 0.0 0.0 0.00 0.00 0.00 37 1019.4
20260903092739 72 45 0.0 0.0 0.00 0.00 0.00 37 1019.5
20260903092237 72 0 0.0 0.0 0.00 0.00 0.00 37 1019.3
20260903091734 73 0 0.0 0.0 0.00 0.00 0.00 36 1019.3
20260903091234 73 0 0.0 0.0 0.00 0.00 0.00 35 1019.3
20260903090729 74 0 0.0 0.0 0.00 0.00 0.00 35 1019.3
20260903090227 74 90 0.0 0.0 0.00 0.00 0.00 34 1019.2
20260903085725 75 90 0.0 0.0 0.00 0.00 0.00 34 1019.2
20260903085222 75 90 0.0 0.0 0.00 0.00 0.00 34 1019.1
20260903084720 76 180 0.0 0.0 0.00 0.00 0.00 33 1019.0
20260903084218 76 45 0.0 0.0 0.00 0.00 0.00 33 1018.9
20260903083719 77 45 0.0 0.0 0.00 0.00 0.00 32 1019.0
20260903083215 77 45 0.0 1.0 0.00 0.00 0.00 32 1019.0
20260903082714 78 0 0.0 0.0 0.00 0.00 0.00 32 1019.0
20260903082213 78 270 0.0 0.0 0.00 0.00 0.00 31 1018.9
20260903081709 79 270 0.0 0.0 0.00 0.00 0.00 31 1018.9
20260903081205 80 90 0.0 0.0 0.00 0.00 0.00 30 1018.8
20260903080702 80 90 0.0 0.0 0.00 0.00 0.00 30 1018.8
20260903080200 81 90 0.0 1.0 0.00 0.00 0.00 29 1018.8
20260903075700 81 90 1.0 1.0 0.00 0.00 0.00 29 1018.8
20260903075156 82 90 1.0 1.0 0.00 0.00 0.00 29 1018.8
20260903074654 82 45 1.0 2.0 0.00 0.00 0.00 28 1018.7
20260903074154 83 90 0.0 1.0 0.00 0.00 0.00 28 1018.6
20260903073649 83 45 1.0 3.0 0.00 0.00 0.00 27 1018.7
20260903073146 83 45 2.0 3.0 0.00 0.00 0.00 27 1018.7
20260903072646 84 78 2.0 3.0 0.00 0.00 0.00 27 1018.7
20260903071640 84 135 1.0 6.0 0.00 0.00 0.00 26 1018.5
20260903071138 85 135 4.0 4.0 0.00 0.00 0.00 26 1018.5
20260903070638 85 135 4.0 4.0 0.00 0.00 0.00 26 1018.5
20260903070134 85 112 3.0 6.0 0.00 0.00 0.00 26 1018.5
20260903065633 86 90 4.0 6.0 0.00 0.00 0.00 25 1018.5
20260903065131 86 45 4.0 6.0 0.00 0.00 0.00 25 1018.4
20260903064628 86 78 3.0 6.0 0.00 0.00 0.00 25 1018.4
20260903064126 86 90 2.0 3.0 0.00 0.00 0.00 25 1018.4
20260903063622 86 337 0.0 2.0 0.00 0.00 0.00 26 1018.5
20260903063121 86 0 3.0 4.0 0.00 0.00 0.00 25 1018.4
20260903062617 86 135 2.0 3.0 0.00 0.00 0.00 25 1018.5
20260903062116 86 0 2.0 3.0 0.00 0.00 0.00 25 1018.5
20260903061613 86 67 4.0 7.0 0.00 0.00 0.00 25 1018.4
20260903061112 87 135 4.0 6.0 0.00 0.00 0.00 25 1018.3
20260903060610 87 90 1.0 3.0 0.00 0.00 0.00 25 1018.4
20260903060106 87 45 4.0 9.0 0.00 0.00 0.00 24 1018.3
20260903055604 87 90 6.0 6.0 0.00 0.00 0.00 25 1018.4
20260903055104 87 45 2.0 4.0 0.00 0.00 0.00 25 1018.5
20260903054559 86 22 3.0 4.0 0.00 0.00 0.00 25 1018.4
20260903054057 86 337 1.0 9.0 0.00 0.00 0.00 26 1018.5
20260903053916 86 11 9.0 9.0 0.00 0.00 0.00 25 1018.4
20260903053724 86 45 1.0 3.0 0.00 0.00 0.00 26 1018.5
20260903053221 86 135 3.0 3.0 0.00 0.00 0.00 26 1018.6
20260903052718 86 180 3.0 7.0 0.00 0.00 0.00 25 1018.6
20260903052216 86 112 5.0 9.0 0.00 0.00 0.00 25 1018.6
20260903051715 86 90 9.0 9.0 0.00 0.00 0.00 25 1018.5
20260903051414 86 45 1.0 8.0 0.00 0.00 0.00 25 1018.6
20260903050911 86 90 6.0 10.0 0.00 0.00 0.00 24 1018.5
20260903050408 86 67 7.0 9.0 0.00 0.00 0.00 25 1018.6
20260903045904 86 22 4.0 8.0 0.00 0.00 0.00 25 1018.6
20260903045403 86 0 4.0 9.0 0.00 0.00 0.00 25 1018.6
20260903044901 86 67 2.0 7.0 0.00 0.00 0.00 26 1018.6
20260903044359 86 67 4.0 8.0 0.00 0.00 0.00 26 1018.7
20260903043855 86 45 2.0 10.0 0.00 0.00 0.00 26 1018.8
20260903043533 86 45 10.0 10.0 0.00 0.00 0.00 25 1018.7
20260903043032 86 45 7.0 7.0 0.00 0.00 0.00 26 1018.9
20260903042530 86 135 4.0 13.0 0.00 0.00 0.00 25 1019.0
20260903042338 86 90 13.0 13.0 0.00 0.00 0.00 26 1018.9
20260903042215 86 337 2.0 7.0 0.00 0.00 0.00 27 1019.0
20260903041713 86 135 4.0 7.0 0.00 0.00 0.00 27 1019.0
20260903041210 86 45 5.0 7.0 0.00 0.00 0.00 26 1019.0
20260903040707 86 180 2.0 7.0 0.00 0.00 0.00 28 1019.2
20260903040206 85 90 4.0 13.0 0.00 0.00 0.00 27 1019.3
20260903040054 86 90 13.0 13.0 0.00 0.00 0.00 27 1019.3
20260903035651 85 45 5.0 13.0 0.00 0.00 0.00 28 1019.3
20260903035550 85 90 13.0 13.0 0.00 0.00 0.00 27 1019.4
20260903035117 85 45 5.0 8.0 0.00 0.00 0.00 28 1019.4
20260903034616 85 45 7.0 9.0 0.00 0.00 0.00 27 1019.4
20260903034112 85 337 8.0 9.0 0.00 0.00 0.00 28 1019.5
20260903033610 85 0 4.0 19.0 0.00 0.00 0.00 28 1019.7
20260903033508 85 45 14.0 14.0 0.00 0.00 0.00 28 1019.6
20260903033055 85 135 6.0 14.0 0.00 0.00 0.00 28 1019.7
20260903032914 85 90 14.0 14.0 0.00 0.00 0.00 28 1019.7
20260903032228 85 348 6.0 22.0 0.00 0.00 0.00 28 1019.8
20260903031932 85 11 5.0 13.0 0.00 0.00 0.00 29 1019.9
20260903031431 85 78 8.0 8.0 0.00 0.00 0.00 28 1020.0
20260903030927 85 67 8.0 8.0 0.00 0.00 0.00 30 1020.1
20260903030424 85 337 1.0 10.0 0.00 0.00 0.00 31 1020.2
20260903025923 84 281 4.0 10.0 0.00 0.00 0.00 32 1020.2
20260903025421 84 45 3.0 5.0 0.00 0.00 0.00 31 1020.3
20260903024919 84 0 4.0 9.0 0.00 0.00 0.00 31 1020.4
20260903024416 84 0 3.0 6.0 0.00 0.00 0.00 32 1020.6
20260903023913 83 270 2.0 7.0 0.00 0.00 0.00 32 1020.6
20260903022908 82 90 3.0 5.0 0.00 0.00 0.00 34 1020.8
20260903022408 82 45 4.0 11.0 0.00 0.00 0.00 34 1021.0
20260903021903 82 22 8.0 9.0 0.00 0.00 0.00 34 1021.1
20260903021402 82 0 9.0 11.0 0.00 0.00 0.00 34 1021.2
20260903020859 82 0 3.0 6.0 0.00 0.00 0.00 34 1021.3
20260903020357 81 45 6.0 10.0 0.00 0.00 0.00 35 1021.3
20260903015854 81 337 8.0 8.0 0.00 0.00 0.00 35 1021.4
20260903015353 81 22 5.0 7.0 0.00 0.00 0.00 36 1021.6
20260903014850 81 0 4.0 13.0 0.00 0.00 0.00 37 1021.7
20260903014739 81 0 13.0 13.0 0.00 0.00 0.00 37 1021.6
20260903014237 80 11 5.0 15.0 0.00 0.00 0.00 37 1021.7
20260903013924 80 22 13.0 13.0 0.00 0.00 0.00 37 1021.8
20260903013741 80 202 3.0 7.0 0.00 0.00 0.00 39 1021.9
20260903013240 80 0 7.0 10.0 0.00 0.00 0.00 38 1022.0
20260903012736 80 90 6.0 8.0 0.00 0.00 0.00 38 1022.1
20260903012234 80 0 4.0 8.0 0.00 0.00 0.00 39 1022.3
20260903011730 79 225 4.0 7.0 0.00 0.00 0.00 40 1022.4
20260903011231 79 315 3.0 8.0 0.00 0.00 0.00 40 1022.6
20260903010728 79 247 2.0 6.0 0.00 0.00 0.00 40 1022.6
20260903010105 78 112 1.0 4.0 0.00 0.00 0.00 41 1022.8
20260903005559 78 22 4.0 9.0 0.00 0.00 0.00 40 1022.8
20260903005056 77 67 5.0 10.0 0.00 0.00 0.00 40 1022.8
20260903004556 77 337 7.0 9.0 0.00 0.00 0.00 40 1022.8
20260903004052 78 0 6.0 9.0 0.00 0.00 0.00 40 1022.9
20260903003550 77 45 11.0 11.0 0.00 0.00 0.00 40 1022.7
20260903003451 77 90 2.0 9.0 0.00 0.00 0.00 41 1023.0
20260903002946 77 337 4.0 11.0 0.00 0.00 0.00 42 1023.1
20260903002443 76 45 5.0 7.0 0.00 0.00 0.00 41 1023.1
20260903001944 76 22 5.0 10.0 0.00 0.00 0.00 42 1023.3
20260903001442 76 90 6.0 6.0 0.00 0.00 0.00 43 1023.2
20260903000938 76 33 7.0 9.0 0.00 0.00 0.00 42 1023.3
20260903000435 75 225 5.0 7.0 0.00 0.00 0.00 47 1023.4
20260902235933 75 281 5.0 6.0 0.00 0.00 0.00 48 1023.5
20260902235432 74 281 3.0 7.0 0.00 0.00 0.00 48 1023.5
20260902234927 74 0 5.0 7.0 0.00 0.00 0.00 47 1023.5
20260902234426 74 0 1.0 6.0 0.00 0.00 0.00 48 1023.5
20260902233923 73 315 5.0 7.0 0.00 0.00 0.00 49 1023.4
20260902233422 73 0 6.0 6.0 0.00 0.00 0.00 50 1023.4
20260902232920 72 45 5.0 6.0 0.00 0.00 0.00 51 1023.4
20260902232418 72 0 5.0 5.0 0.00 0.00 0.00 51 1023.5
20260902231915 72 0 6.0 8.0 0.00 0.00 0.00 52 1023.5
20260902231411 71 0 3.0 6.0 0.00 0.00 0.00 54 1023.6